Location: Boursonne
(49.2024°N, 3.0468°E)
Time: 05:58:25
(UTC+00:00)

DMSP B5D1-3 - Pass Details

Date: 03 March 2021
Orbit: 767 x 780 km, 98.5° (Epoch: 11 April)

Event Time Altitude Azimuth Distance (km) Brightness Sun altitude
Rises 18:46:21 0° 15° (NNE) 3,274 7.7 -12.6°
Reaches altitude 10° 18:48:40 10° 16° (NNE) 2,343 6.9 -12.9°
Maximum altitude 18:53:51 84° 105° (ESE) 792 4.5 -13.8°
Drops below altitude 10° 18:59:01 10° 194° (SSW) 2,329 7.1 -14.6°
Sets 19:01:19 0° 195° (SSW) 3,252 7.8 -15.0°
